STARLINK-3777, 52294

Orbit data source: Space-Track

STARLINK-3777, 52294 is a payload satellite owned by SpaceX/Seattle (US) in LEO that was launched on Thu, 21 Apr 2022 UTC via an FALCON 9 launch vehicle from the Air Force Eastern Test Range (AFETR). Payload-class satellites include a variety of spacecraft equipped with specific instruments for various scientific and technological missions. These include communications satellites like Starlink; space stations such as the ISS; scientific satellites like the Hubble; Earth observation satellites from companies like Planet Labs, Umbra, and HawkEye 360; GPS; miniature CubeSats for education and research; and military/defense satellites.

Loading next visibility...
Identifier
52294, 2022-041AK
Orbit
LEO
Country
Flag of USUS
Related business
Manufacturer
SpaceX/Seattle
Mission
Operational Commercial Communications
Bus & Motor
STARLINK, Unknown motor
Mass
297 kg wet, ~275 kg dry
Launch date (UTC)
2022-04-21 (4 years ago)
Launch vehicle
FALCON 9
Launch site
Air Force Eastern Test Range (AFETR)
Object type
Payload
Rocket body
Debris
Shape & HBR
Box + 1 Pan, 10.1 m
Radar Cross Section
11.087 m², Large (>1 m²)

Expand to show TLE details & history
Last TLE update: 8 hours ago

TLE from 8 hours ago
0 STARLINK-3777
1 52294U 22041AK  26263.54274770  .00001787  00000-0  65640-4 0  9994
2 52294  53.1603 291.6501 0001320  81.2883 278.8269 15.33561245244098
Epoch: 2026-09-20T13:01Z
TLE epoch observation values (Epoch: 2026-09-20T13:01:33.401Z)
Latitude
0.00001°
Longitude
96.82551°
Altitude
465.96 km
Speed
7.635 km/s
True Right ascension
19h 26m 36s
True Declination
0° 00' 00"
Sunlit
Object was in full shadow at epoch
Visualization orbit readout
Latitude
Unknown
Longitude
Unknown
Altitude
Unknown
Speed
Unknown
Apparent Right ascension
Unknown
Apparent Declination
Unknown
Sunlit
N/A
Visualization observer readout
Local Sidereal Time
14:00:12
Azimuth
Unknown
Elevation
Unknown
Doppler factor
Unknown
Orbital elements
Apogee altitude
466.357 km
Perigee altitude
464.551 km
Semi-major axis
6,843.591 km
Eccentricity
0.00013
Inclination
53.1603°
RAAN
291.6501°
Arg. of periapsis
81.2883°
True anomaly
278.81195°
Mean anomaly
278.8269°
Eccentric anomaly
278.81943°
Mean motion
3.83369 °/min
Orbital period
93.9 mins
BSTAR
0.00006564
Loading maneuver chart data...
Computing Atmospheric mass density...
Loading historical data...
Loading historical data...
Loading historical data...
Loading historical data...
Loading historical data...
Loading historical data...
Loading historical data...

Documentation

Showing up to 5 results
|